Terug naar catalogus

COSMOS 1417 DEB

ActiefPO
NORAD 37865·DEBRIS·🇷🇺 Russia

Gelanceerd Oct 19, 1982 vanaf Plesetsk Cosmodrome

Loading…

Volgende Passages (komende 24 uur)

TLE

VersSource: Space-Track

Epoch: Sep 13, 2026, 01:46 UTC

1 37865U 82102D   26256.07366150  .00000069  00000-0  55281-4 0  9991
2 37865  82.9722 191.3799 0034834 165.5294 194.6869 13.76091173597938

Volg COSMOS 1417 DEB in realtime met AllMySat

Download on the App Store